Date_and_time,latitude,longitude,wind_speed,RelWindDirFrom,WindDirFrom,air_pressure,air_temperature,relative_humidity,Temp,platform_speed_wrt_ground,air_pressure_at_mean_sea_level,platform_orientation
2018-10-31 23:50,50.6304633333333,-96.9807716666667,5.1,7.1,313,986.23,-0.3,72,4.42,0.0,1014.06,142.0
2018-11-01 00:00,50.6304616666667,-96.9807716666667,4.7,8.3,306,986.22,-0.4,73,4.41,0.0,1014.05,270.0
2018-11-01 00:00,50.6304616666667,-96.9807716666667,6.4,6.5,319,986.23,-0.3,73,4.40,0.0,1014.07,270.0
2018-11-01 00:10,50.6304616666667,-96.98077,4.7,7.1,312,986.28,-0.4,73,4.39,0.0,1014.12,270.0
2018-11-01 00:20,50.6304633333333,-96.98077,5.2,8.0,320,986.29,-0.3,73,4.39,0.0,1014.14,270.0
2018-11-01 00:30,50.6304633333333,-96.9807683333333,5.4,7.6,341,986.36,-0.2,73,4.38,0.0,1014.20,270.0
2018-11-01 00:40,50.6304633333333,-96.9807683333333,4.3,6.4,334,986.40,-0.3,72,4.37,0.0,1014.24,270.0
2018-11-01 00:50,50.6304633333333,-96.9807683333333,3.8,5.7,330,986.39,-0.3,73,4.36,0.0,1014.24,270.0
2018-11-01 01:00,50.6304633333333,-96.9807683333333,3.5,5.8,329,986.31,-0.3,73,4.35,0.0,1014.16,360.0
2018-11-01 01:10,50.6304633333333,-96.98077,2.0,3.1,300,986.37,-0.4,73,4.35,0.0,1014.23,360.0
2018-11-01 01:20,50.6304633333333,-96.9807683333333,2.6,4.4,265,986.41,-0.5,73,4.34,0.0,1014.28,360.0
2018-11-01 01:30,50.6304633333333,-96.98077,1.5,2.7,264,986.45,-0.5,74,4.34,0.0,1014.31,360.0
2018-11-01 01:40,50.6304633333333,-96.98077,1.8,3.1,266,986.43,-0.5,74,4.34,0.0,1014.30,360.0
2018-11-01 01:50,50.6304633333333,-96.98077,1.8,2.6,243,986.42,-0.5,75,4.33,0.0,1014.28,360.0
2018-11-01 02:00,50.6304633333333,-96.98077,2.1,3.3,267,986.39,-0.5,74,4.33,0.0,1014.26,90.0
2018-11-01 02:10,50.630465,-96.98077,2.3,3.9,251,986.41,-0.6,74,4.32,0.0,1014.28,90.0
2018-11-01 02:20,50.630465,-96.98077,1.6,2.7,238,986.42,-0.6,74,4.31,0.0,1014.29,90.0
2018-11-01 02:30,50.6304633333333,-96.98077,1.4,2.2,267,986.43,-0.5,74,4.31,0.0,1014.29,90.0
2018-11-01 02:40,50.6304633333333,-96.98077,1.8,2.8,312,986.41,-0.4,74,4.31,0.0,1014.27,90.0
2018-11-01 02:50,50.6304633333333,-96.98077,2.0,3.1,306,986.42,-0.5,73,4.31,0.0,1014.28,90.0
2018-11-01 03:00,50.6304633333333,-96.9807683333333,2.3,4.0,301,986.43,-0.4,74,4.32,0.0,1014.30,90.0
2018-11-01 03:10,50.6304633333333,-96.9807683333333,2.2,3.1,307,986.48,-0.5,74,4.32,0.0,1014.35,90.0
2018-11-01 03:20,50.6304666666667,-96.98075,2.2,3.0,315,986.40,-0.5,75,4.32,0.0,1014.28,90.0
2018-11-01 03:30,50.6304583333333,-96.9807533333333,2.3,3.2,326,986.38,-0.5,75,4.32,0.0,1014.25,90.0
2018-11-01 03:40,50.6304616666667,-96.9807583333333,2.1,3.3,312,986.43,-0.6,75,4.32,0.0,1014.30,90.0
2018-11-01 03:50,50.6304583333333,-96.980755,1.0,2.2,312,986.44,-0.6,74,4.31,0.0,1014.32,90.0
2018-11-01 04:00,50.6304566666667,-96.9807566666667,0.5,1.8,236,986.44,-0.6,72,4.31,0.0,1014.32,360.0
2018-11-01 04:10,50.6304583333333,-96.980755,1.1,2.9,258,986.52,-0.5,71,4.31,0.0,1014.40,360.0
2018-11-01 04:20,50.6304616666667,-96.9807583333333,0.9,2.9,256,986.55,-0.5,71,4.30,0.0,1014.43,360.0
2018-11-01 04:30,50.6304633333333,-96.9807583333333,1.8,2.8,228,986.60,-0.6,70,4.30,0.0,1014.48,360.0
2018-11-01 04:40,50.6304616666667,-96.98076,2.3,3.1,240,986.65,-0.6,71,4.30,0.0,1014.53,360.0
2018-11-01 04:50,50.6304616666667,-96.9807633333333,2.3,3.3,250,986.62,-0.6,71,4.30,0.0,1014.50,360.0
2018-11-01 05:00,50.6304616666667,-96.9807616666667,2.1,3.4,265,986.60,-0.5,69,4.30,0.0,1014.48,90.0
2018-11-01 05:10,50.6304483333333,-96.9807683333333,3.0,4.7,269,986.57,-0.5,71,4.30,0.0,1014.45,90.0
2018-11-01 05:20,50.63046,-96.9807616666667,2.0,3.0,257,986.58,-0.6,72,4.30,0.0,1014.46,90.0
2018-11-01 05:30,50.6304616666667,-96.9807633333333,1.5,2.4,242,986.57,-0.6,74,4.31,0.0,1014.46,90.0
2018-11-01 05:40,50.6304616666667,-96.980765,1.7,2.9,252,986.64,-0.6,74,4.31,0.0,1014.53,90.0
2018-11-01 05:50,50.6304616666667,-96.9807616666667,1.3,2.6,275,986.71,-0.6,74,4.30,0.0,1014.60,90.0
2018-11-01 06:00,50.63046,-96.98076,2.0,4.0,261,986.74,-0.6,72,4.29,0.0,1014.63,167.4
2018-11-01 06:10,50.63046,-96.9807583333333,3.0,6.1,278,986.75,-0.5,72,4.28,0.0,1014.64,167.4
2018-11-01 06:20,50.63046,-96.9807566666667,3.0,4.8,270,986.82,-0.5,72,4.26,0.0,1014.71,167.4
2018-11-01 06:30,50.6304583333333,-96.980755,2.8,3.9,281,986.82,-0.5,74,4.23,0.0,1014.71,167.4
2018-11-01 06:40,50.6304583333333,-96.980755,2.9,4.6,309,986.82,-0.5,73,4.23,0.0,1014.71,167.4
2018-11-01 06:50,50.63046,-96.980755,2.4,4.1,305,986.84,-0.5,73,4.22,0.0,1014.73,167.4
2018-11-01 07:00,50.6304416666667,-96.98078,2.0,3.8,274,986.86,-0.5,73,4.21,0.0,1014.75,237.7
2018-11-01 07:10,50.63045,-96.9807666666667,2.4,4.4,258,986.92,-0.6,74,4.21,0.0,1014.82,237.7
2018-11-01 07:20,50.6304533333333,-96.9807666666667,2.8,4.3,275,986.94,-0.6,74,4.20,0.0,1014.84,237.7
2018-11-01 07:30,50.63047,-96.9807666666667,3.3,5.4,280,986.99,-0.6,74,4.19,0.0,1014.89,237.7
2018-11-01 07:40,50.6304616666667,-96.98076,3.4,6.5,286,986.97,-0.5,74,4.18,0.0,1014.87,237.7
2018-11-01 07:50,50.630455,-96.9807583333333,3.0,5.2,281,986.94,-0.6,74,4.17,0.0,1014.84,237.7
2018-11-01 08:00,50.63045,-96.98076,4.2,6.1,311,986.97,-0.5,74,4.17,0.0,1014.86,360.0
2018-11-01 08:10,50.6304516666667,-96.9807616666667,2.3,4.2,323,987.03,-0.5,75,4.17,0.0,1014.93,360.0
2018-11-01 08:20,50.6304416666667,-96.98076,2.9,4.8,351,987.00,-0.4,74,4.17,0.0,1014.89,360.0
2018-11-01 08:30,50.6304483333333,-96.9807666666667,2.8,4.3,342,987.05,-0.4,75,4.17,0.0,1014.94,360.0
2018-11-01 08:40,50.63045,-96.9807683333333,3.6,5.4,351,987.11,-0.4,75,4.17,0.0,1015.00,360.0
2018-11-01 08:50,50.6304516666667,-96.9807666666667,3.3,4.5,342,987.07,-0.5,74,4.16,0.0,1014.97,360.0
2018-11-01 09:00,50.6304533333333,-96.9807666666667,3.6,5.2,338,986.94,-0.5,75,4.15,0.0,1014.84,192.6
2018-11-01 09:10,50.6304533333333,-96.9807666666667,3.5,4.9,329,986.92,-0.5,75,4.15,0.0,1014.82,192.6
2018-11-01 09:20,50.6304533333333,-96.9807666666667,2.8,3.9,318,986.96,-0.6,74,4.15,0.0,1014.86,192.6
2018-11-01 09:30,50.630455,-96.9807666666667,1.4,3.0,299,986.96,-0.6,74,4.16,0.0,1014.86,192.6
2018-11-01 09:40,50.6304666666667,-96.980755,1.7,2.6,249,986.98,-0.8,73,4.15,0.0,1014.89,192.6
2018-11-01 09:50,50.630465,-96.980755,3.0,4.1,211,987.00,-0.9,76,4.17,0.0,1014.92,192.6
2018-11-01 10:00,50.63049,-96.9808116666667,3.1,4.2,209,987.01,-0.9,77,4.15,0.0,1014.93,360.0
2018-11-01 10:10,50.6304683333333,-96.980775,3.1,3.8,198,986.95,-0.9,77,4.14,0.0,1014.85,360.0
2018-11-01 10:20,50.630455,-96.9807316666667,1.9,2.7,200,986.88,-0.9,76,4.15,0.0,1014.78,360.0
2018-11-01 10:30,50.6304733333333,-96.9807733333333,2.3,3.8,185,986.80,-0.8,75,4.15,0.0,1014.70,360.0
2018-11-01 10:40,50.6304516666667,-96.980755,2.3,3.6,182,986.89,-0.8,75,4.15,0.0,1014.80,360.0
2018-11-01 10:50,50.6304533333333,-96.9807583333333,2.0,3.5,141,986.90,-0.5,75,4.14,0.0,1014.79,360.0
2018-11-01 11:00,50.630465,-96.98077,2.3,3.6,151,986.90,-0.7,76,4.13,0.0,1014.80,336.5
2018-11-01 11:10,50.630465,-96.9807716666667,1.7,3.4,149,986.82,-0.5,76,4.12,0.0,1014.71,336.5
2018-11-01 11:20,50.630485,-96.9807883333333,2.3,3.4,168,986.87,-0.6,76,4.12,0.0,1014.77,336.5
2018-11-01 11:30,50.6304683333333,-96.9807833333333,2.5,3.7,171,986.87,-0.6,77,4.13,0.0,1014.77,336.5
2018-11-01 11:40,50.6304666666667,-96.9807783333333,2.2,3.3,160,986.98,-0.6,77,4.13,0.0,1014.89,336.5
2018-11-01 11:50,50.6304683333333,-96.9807833333333,1.5,2.3,189,987.03,-0.4,77,4.13,0.0,1014.94,336.5
2018-11-01 12:00,50.6304716666667,-96.98077,1.4,2.2,187,986.93,-0.4,78,4.14,0.0,1014.84,360.0
2018-11-01 12:10,50.6304733333333,-96.980765,1.7,3.7,142,986.78,-0.2,77,4.13,0.0,1014.67,360.0
2018-11-01 12:20,50.6304733333333,-96.9807633333333,5.8,7.7,131,986.51,0.2,79,4.13,0.0,1014.37,360.0
2018-11-01 12:30,50.6304733333333,-96.9807633333333,5.2,6.9,130,986.65,0.3,78,4.13,0.0,1014.51,360.0
2018-11-01 12:40,50.6304766666667,-96.9807616666667,4.4,6.3,153,986.82,-0.1,79,4.13,0.0,1014.69,360.0
2018-11-01 12:50,50.6304716666667,-96.9807716666667,2.6,4.9,216,986.86,0.0,80,4.13,0.0,1014.74,360.0
2018-11-01 13:00,50.6304683333333,-96.9807683333333,3.0,4.2,275,986.94,-0.2,81,4.12,0.0,1014.81,126.0
2018-11-01 13:10,50.63047,-96.9807716666667,2.0,3.7,287,986.97,-0.3,81,4.10,0.0,1014.85,126.0
2018-11-01 13:20,50.63047,-96.98077,1.2,2.0,296,986.99,-0.3,81,4.09,0.0,1014.88,126.0
2018-11-01 13:30,50.63047,-96.9807716666667,0.6,1.7,271,987.03,-0.3,81,4.09,0.0,1014.92,126.0
2018-11-01 13:40,50.6304683333333,-96.98077,0.4,1.8,119,987.03,-0.1,80,4.08,0.0,1014.90,126.0
2018-11-01 13:50,50.63046,-96.9807716666667,1.1,2.8,172,987.03,-0.3,80,4.08,0.0,1014.91,126.0
2018-11-01 14:00,50.63046,-96.9807666666667,3.1,4.1,161,986.94,-0.4,80,4.07,0.0,1014.81,360.0
2018-11-01 14:10,50.6304616666667,-96.9807683333333,3.4,4.5,176,986.98,-0.3,81,4.06,0.0,1014.83,360.0
2018-11-01 14:20,50.6304783333333,-96.9808,3.8,4.5,183,986.99,-0.2,83,4.05,0.0,1014.82,360.0
2018-11-01 14:30,50.6304633333333,-96.9807866666667,4.0,5.6,185,987.05,-0.2,85,4.05,0.0,1014.91,360.0
2018-11-01 14:40,50.63046,-96.98077,5.2,6.2,179,986.99,-0.2,86,4.05,0.0,1014.83,360.0
2018-11-01 14:50,50.6304616666667,-96.9807716666667,6.5,8.6,175,986.98,0.1,86,4.05,0.0,1014.82,360.0
2018-11-01 15:00,50.6304733333333,-96.9807816666667,6.9,9.6,172,987.04,0.3,86,4.04,0.0,1014.88,270.0
2018-11-01 15:10,50.6304616666667,-96.9807883333333,8.5,11.2,156,987.01,0.3,83,4.04,0.0,1014.85,270.0
2018-11-01 15:20,50.6304466666667,-96.980755,8.5,10.9,156,987.02,0.3,82,4.03,0.0,1014.86,270.0
2018-11-01 15:30,50.63046,-96.9807666666667,8.1,9.9,152,987.03,0.3,82,4.03,0.0,1014.86,270.0
2018-11-01 15:40,50.63046,-96.9807633333333,7.2,8.9,156,987.01,0.3,84,4.02,0.0,1014.85,270.0
2018-11-01 15:50,50.6304716666667,-96.9807433333333,8.4,9.8,147,986.91,0.3,84,4.02,0.0,1014.74,270.0
2018-11-01 16:00,50.63044,-96.9807616666667,8.8,10.6,148,986.84,0.3,82,4.02,0.0,1014.68,166.7
2018-11-01 16:10,50.6304533333333,-96.9807683333333,8.2,10.7,146,986.79,0.4,83,4.03,0.0,1014.61,166.7
2018-11-01 16:20,50.6304566666667,-96.98077,8.2,10.0,150,986.76,0.4,81,4.03,0.0,1014.58,166.7
2018-11-01 16:30,50.6304583333333,-96.98077,8.7,10.6,150,986.72,0.4,82,4.04,0.0,1014.54,166.7
2018-11-01 16:40,50.6304566666667,-96.9807683333333,9.4,11.5,151,986.56,0.4,82,4.04,0.0,1014.36,166.7
2018-11-01 16:50,50.630455,-96.980775,9.9,11.9,156,986.41,0.5,81,4.04,0.0,1014.19,166.7
2018-11-01 17:00,50.630475,-96.9807983333333,10.5,12.6,160,986.38,0.6,84,4.04,0.0,1014.15,305.8
2018-11-01 17:10,50.6304466666667,-96.9807833333333,8.6,11.3,154,986.50,0.7,84,4.05,0.0,1014.27,305.8
2018-11-01 17:20,50.6304616666667,-96.9807683333333,8.8,10.7,152,986.59,0.7,83,4.04,0.0,1014.37,305.8
2018-11-01 17:30,50.6304616666667,-96.9807716666667,8.5,10.6,156,986.66,0.8,83,4.05,0.0,1014.43,305.8
2018-11-01 17:40,50.63046,-96.9807716666667,9.4,11.6,154,986.59,0.8,82,4.07,0.0,1014.36,305.8
2018-11-01 17:50,50.63046,-96.9807716666667,9.9,11.9,151,986.45,0.8,81,4.07,0.0,1014.21,305.8
2018-11-01 18:00,50.6304583333333,-96.98077,9.7,12.0,148,986.29,0.9,82,4.06,0.0,1014.05,138.8
2018-11-01 18:10,50.6304566666667,-96.9807716666667,10.3,12.2,149,986.15,1.0,82,4.07,0.0,1013.90,138.8
2018-11-01 18:20,50.630445,-96.98079,10.7,13.0,154,985.94,1.1,80,4.08,0.0,1013.67,138.8
2018-11-01 18:30,50.6304533333333,-96.980775,12.0,14.3,151,985.77,1.2,80,4.09,0.0,1013.48,138.8
2018-11-01 18:40,50.6304716666667,-96.9807566666667,10.7,13.4,151,985.75,1.4,80,4.10,0.0,1013.46,138.8
2018-11-01 18:50,50.630455,-96.9807616666667,9.4,12.2,149,985.85,1.5,79,4.12,0.0,1013.55,138.8
2018-11-01 19:00,50.6304533333333,-96.980765,10.0,12.1,140,985.81,1.7,80,4.13,0.0,1013.50,318.7
2018-11-01 19:10,50.6304516666667,-96.9807683333333,9.3,11.8,140,985.87,1.7,80,4.13,0.0,1013.55,318.7
2018-11-01 19:20,50.6304516666667,-96.98077,9.8,12.2,139,985.88,1.7,80,4.13,0.0,1013.56,318.7
2018-11-01 19:30,50.6304516666667,-96.9807716666667,9.3,11.2,139,985.81,1.9,79,4.13,0.0,1013.48,318.7
2018-11-01 19:40,50.63045,-96.9807716666667,8.9,10.9,137,985.77,2.0,79,4.14,0.0,1013.43,318.7
2018-11-01 19:50,50.6304516666667,-96.9807733333333,8.6,10.9,138,985.75,2.1,79,4.15,0.0,1013.40,318.7
2018-11-01 20:00,50.63045,-96.980775,8.5,10.8,132,985.73,2.4,77,4.15,0.0,1013.36,136.8
2018-11-01 20:10,50.6304483333333,-96.980775,8.4,11.3,132,985.73,2.6,77,4.16,0.0,1013.35,136.8
2018-11-01 20:20,50.6304483333333,-96.980775,8.6,10.6,124,985.71,3.1,78,4.17,0.0,1013.30,136.8
2018-11-01 20:30,50.6304483333333,-96.980775,8.7,10.2,118,985.68,3.3,78,4.17,0.0,1013.24,136.8
2018-11-01 20:40,50.6304483333333,-96.980775,8.9,10.2,112,985.68,3.3,79,4.18,0.0,1013.24,136.8
2018-11-01 20:50,50.6304483333333,-96.980775,9.0,10.7,106,985.72,3.3,80,4.19,0.0,1013.27,136.8
2018-11-01 21:00,50.6304483333333,-96.9807733333333,9.4,10.7,104,985.63,3.3,80,4.20,0.0,1013.17,194.5
2018-11-01 21:10,50.63045,-96.9807733333333,9.6,11.1,106,985.61,3.4,81,4.20,0.0,1013.15,194.5
2018-11-01 21:20,50.63045,-96.9807716666667,10.1,11.5,106,985.62,3.4,81,4.21,0.0,1013.15,194.5
2018-11-01 21:30,50.63045,-96.9807716666667,9.8,11.5,106,985.57,3.3,83,4.21,0.0,1013.10,194.5
2018-11-01 21:40,50.63045,-96.9807716666667,10.5,12.3,112,985.58,3.3,84,4.21,0.0,1013.10,194.5
2018-11-01 21:50,50.63045,-96.9807716666667,10.2,11.8,111,985.61,3.3,84,4.22,0.0,1013.11,194.5
2018-11-01 22:00,50.63045,-96.9807716666667,9.3,10.7,110,985.71,3.4,87,4.21,0.0,1013.21,270.0
2018-11-01 22:10,50.6304316666667,-96.9807666666667,9.4,10.5,115,985.78,3.5,87,4.21,0.0,1013.26,270.0
2018-11-01 22:20,50.630445,-96.980765,9.4,10.9,120,985.79,3.6,83,4.21,0.0,1013.25,270.0
2018-11-01 22:30,50.63041,-96.9807633333333,9.5,11.1,120,985.79,3.6,85,4.20,0.0,1013.24,270.0
2018-11-01 22:40,50.6304416666667,-96.9807766666667,9.4,10.9,122,985.92,3.6,83,4.20,0.0,1013.37,270.0
2018-11-01 22:50,50.630445,-96.9807633333333,8.8,10.6,121,985.98,3.6,84,4.20,0.0,1013.44,270.0
2018-11-01 23:00,50.63045,-96.9807666666667,8.4,9.6,119,986.06,3.6,85,4.20,0.0,1013.52,90.0
2018-11-01 23:10,50.6304483333333,-96.9807666666667,8.3,9.4,113,986.07,3.5,89,4.20,0.0,1013.53,90.0
2018-11-01 23:20,50.63045,-96.98077,8.0,9.2,110,986.05,3.5,90,4.20,0.0,1013.51,90.0
